Regional Weather Roundup
Issued by NWS

Home | Current Version | Previous Version | Text Only | Print | Product List | Glossary Off
Versions: 1 2 3 4 5 6 7 8 9 10 11 12 13 14 15 16 17 18 19 20 21 22 23 24 25 26 27 28 29 30 31 32 33 34 35 36 37 38 39 40 41 42 43 44 45 46 47 48 49 50

000
ASUS43 KLMK 192102
RWRKY
KENTUCKY REGIONAL WEATHER ROUNDUP
NATIONAL WEATHER SERVICE LOUISVILLE KY
500 PM EDT TUE SEP 19 2017

NOTE "FAIR" INDICATES FEW OR NO CLOUDS BELOW 12,000 FEET
WITH NO SIGNIFICANT WEATHER AND/OR OBSTRUCTIONS TO VISIBILITY.

KYZ001>023-026-027-061>063-070>075-192200-
WESTERN AND SOUTH CENTRAL KENTUCKY

CITY           SKY/WX    TMP DP  RH WIND       PRES   REMARKS
PADUCAH        MOSUNNY   86  67  52 S3        29.88F
HENDERSON      MOSUNNY   85  69  58 VRB6      29.90F
OWENSBORO      MOSUNNY   85  70  60 S6        29.90F
HOPKINSVILLE   SUNNY     85  68  56 W7        29.90F
BOWLING GREEN  MOSUNNY   84  72  67 SE8       29.91F
GLASGOW        SUNNY     79  66  64 S5        29.93F
$$

KYZ024-025-028>034-038-045-046-053-192200-
NORTH CENTRAL KENTUCKY

CITY           SKY/WX    TMP DP  RH WIND       PRES   REMARKS
LOUISVILLE/SDF CLOUDY    76  69  79 SE7       29.93F
LOUISVILLE/LOU CLOUDY    75  70  84 SE5       29.94F
FORT KNOX      CLOUDY    77  68  73 CALM      29.92S
$$

KYZ035>037-039>044-047>052-055>060-089>105-192200-
NORTHEAST KENTUCKY

CITY           SKY/WX    TMP DP  RH WIND       PRES   REMARKS
LEXINGTON      PTSUNNY   78  68  71 SW7       29.95F
COVINGTON      PTSUNNY   77  68  73 CALM      29.94F
FRANKFORT      CLOUDY    76  67  73 CALM      29.94F
$$

KYZ054-064>069-076>088-106>120-192200-
SOUTHEAST KENTUCKY

CITY           SKY/WX    TMP DP  RH WIND       PRES   REMARKS
JACKSON        MOSUNNY   76  70  82 CALM      29.98F
LONDON         LGT RAIN  73  68  84 W6        29.97S
SOMERSET       NOT AVBL
MIDDLESBORO    PTSUNNY   79  67  67 W3        29.98R
MONTICELLO     CLOUDY    80  69  69 W13       29.98F
$$





USA.gov is the U.S. government's official web portal to all federal, state and local government web resources and services.